Regional Weather Roundup
Issued by NWS

Home | Current Version | Previous Version | Graphics & Text | Print | Product List | Glossary Off
Versions: 1 2 3 4 5 6 7 8 9 10 11 12 13 14 15 16 17 18 19 20 21 22 23 24 25 26 27 28 29 30 31 32 33 34 35 36 37 38 39 40 41 42 43 44 45 46 47 48 49 50

000
ASUS43 KDTX 191610
RWRMI
MICHIGAN HOURLY REGIONAL WEATHER ROUNDUP
NATIONAL WEATHER SERVICE DETROIT/PONTIAC MI
1100 AM EST THU JAN 19 2017

NOTE: "FAIR" INDICATES FEW OR NO CLOUDS BELOW 12,000 FEET WITH NO
SIGNIFICANT WEATHER AND/OR OBSTRUCTION TO VISIBILITY.

MIZ047>049-052>055-059>063-066>070-074>076-081>083-191700-
SOUTHEAST LOWER MICHIGAN

CITY           SKY/WX    TMP DP  RH WIND       PRES   REMARKS
ADRIAN         CLOUDY    33  32  96 W3        30.08R
ALMA           CLOUDY    37  33  88 SW6       30.06R FOG     WCI  32
ANN ARBOR      CLOUDY    35  31  85 CALM      30.06F
BAD AXE        CLOUDY    33  32  96 SW7       30.06R FOG     WCI  27
CARO           CLOUDY    34  32  92 SW8       30.05  FOG     WCI  27
DETROIT CITY   CLOUDY    34  31  88 CALM      30.08F
DETROIT        CLOUDY    35  31  85 W6        30.09S WCI  30
FLINT          CLOUDY    34  30  85 W7        30.06F WCI  28
GROSSE ILE     CLOUDY    34  32  91 W5        30.08S FOG     WCI  30
HILLSDALE      CLOUDY    32  32 100 S3        30.04S FOG
HOWELL         CLOUDY    33  31  92 SW5       30.06R FOG     WCI  29

CITY           SKY/WX    TMP DP  RH WIND       PRES   REMARKS
JACKSON        CLOUDY    34  31  88 SE5       30.04F WCI  30
LAMBERTVILLE   CLOUDY    36  33  87 CALM      30.09R FOG
LANSING        CLOUDY    34  29  82 W5        30.06R WCI  30
LAPEER         CLOUDY    33  32  95 SW7       30.05F WCI  27
MASON          CLOUDY    32  31  96 CALM      30.06S FOG
MONROE         CLOUDY    35  33  93 S6        30.08S FOG     WCI  30
MT. CLEMENS    CLOUDY    34  31  88 CALM      30.06F FOG
PONTIAC        CLOUDY    32  29  88 SW5       30.05R WCI  27
PORT HOPE        N/A     34  33  96 SW6       30.03S WCI  29
PORT HURON     CLOUDY    32  32 100 S6        30.08S WCI  26
TRI CITIES     CLOUDY    36  34  92 SW10      30.04F FOG     WCI  28
MIDLAND        CLOUDY    37  33  85 SW9       30.04S FOG     WCI  30
TROY           CLOUDY    34  30  86 S3        30.09S
SAGINAW HB     CLOUDY    36  32  87 SW12      30.04F FOG     WCI  27
$$
MIZ043>046-050>051-056>058-064>065-071>073-077>080-191700-
SOUTHWEST LOWER MICHIGAN

CITY           SKY/WX    TMP DP  RH WIND       PRES   REMARKS
BATTLE CREEK   CLOUDY    35  33  92 S6        30.04S WCI  30
BENTON HARBOR  CLOUDY    38  35  89 SE8       30.02F FOG     WCI  32
BIG RAPIDS     CLOUDY    35  32  88 SW7       30.01R FOG     WCI  29
COLDWATER      CLOUDY    35  35 100 S3        30.05S FOG
FREMONT        CLOUDY    37  35  92 SW5       30.01F WCI  33
HOLLAND        CLOUDY    37  34  89 MISG      30.03F
GRAND RAPIDS   CLOUDY    36  32  85 S7        30.03R FOG     WCI  30
IONIA          CLOUDY    34  32  94 S3        30.04R FOG
KALAMAZOO      CLOUDY    35  31  85 S7        30.05R FOG     WCI  29
LUDINGTON      CLOUDY    36  35  96 S9        30.01R FOG     WCI  29
MARSHALL       CLOUDY    34  32  93 S5        30.04F WCI  30
MOUNT PLEASANT CLOUDY    37  34  89 SW7       30.02F FOG     WCI  31
MUSKEGON       CLOUDY    39  35  86 S5        30.03S
SOUTH HAVEN    CLOUDY    37  35  95 S7        30.03S FOG     WCI  31
$$
MIZ016>042-191700-
NORTHERN LOWER MICHIGAN

CITY           SKY/WX    TMP DP  RH WIND       PRES   REMARKS
ALPENA         CLOUDY    35  31  85 S6        30.00F WCI  30
BEAVER ISLAND  CLOUDY    34  34  98 SW8       29.95S FOG     WCI  28
BELLAIRE       CLOUDY    34  33  94 S5        29.99F FOG     WCI  30
CADILLAC       FOG       32  31  97 S8        29.98S VSB 1/4 WCI  25
CHARLEVOIX     CLOUDY    35  35  97 S6        30.00S FOG     WCI  30
FRANKFORT      CLOUDY    35  35  99 S7        29.99S FOG     WCI  29
GAYLORD        FOG       34  31  88 SW7       29.96S VSB 1/2 WCI  28
GRAYLING       FOG       33  33  96 SW6       29.99F VSB 1   WCI  28
HARBOR SPRINGS CLOUDY    35  33  93 SW9       29.98R FOG     WCI  27
HOUGHTON LAKE  CLOUDY    33  32  96 SW8       30.00S FOG     WCI  26
MANISTEE       CLOUDY    35  34  96 S6        30.00S FOG     WCI  30
OSCODA         CLOUDY    36  34  93 SW5       30.01F FOG     WCI  32
PELLSTON       CLOUDY    36  31  82 S10       29.98S HAZE    WCI  28
ROGERS CITY    CLOUDY    35  32  88 S5        30.00S FOG     WCI  31
TRAVERSE CITY  CLOUDY    35  32  88 VRB6      29.98S FOG     WCI  30
$$
MIZ007>008-015-191700-
EASTERN UPPER MICHIGAN

CITY           SKY/WX    TMP DP  RH WIND       PRES   REMARKS
KINROSS        CLOUDY    36  33  89 VRB7      29.96S FOG     WCI  30
MACKINAC ISLAN CLOUDY    35  35 100 S5        29.96S FOG     WCI  31
NEWBERRY       CLOUDY    32  32  99 S12       29.92S FOG     WCI  23
S. S. MARIE    CLOUDY    37  32  82 S9        29.96S HAZE    WCI  30
MUNISING         N/A     30  29  96 S8G17     29.89S WCI  22
$$
MIZ004>006-011>014-085-191700-
CENTRAL UPPER MICHIGAN

CITY           SKY/WX    TMP DP  RH WIND       PRES   REMARKS
MANISTIQUE     FOG       30  30  98 S8        29.93S VSB 1/4 WCI  23
ESCANABA       FOG       32  32 100 S9        29.94R VSB 1   WCI  24
SAWYER-GWINN   FOG       28  28 100 SW7       29.86S VSB 1/4 WCI  21
$$
MIZ001>003-009>011-084-191700-
WESTERN UPPER MICHIGAN

CITY           SKY/WX    TMP DP  RH WIND       PRES   REMARKS
IRON MOUNTAIN  CLOUDY    33  30  88 SW7       29.88S FOG     WCI  27
HOUGHTON       FOG       29  27  92 CALM      29.81F VSB<1/4
COPPER HARBOR    N/A     34  29  82 VRB3      29.82F
IRONWOOD       CLOUDY    36  33  89 S9        29.82S WCI  29
$$

ABBREVIATIONS USED IN REMARKS
   TC - TEMPERATURE IN CELSIUS
  WCI - WIND CHILL INDEX
   HX - HEAT INDEX
  VSB - VISIBILITY





USA.gov is the U.S. government's official web portal to all federal, state and local government web resources and services.